| time (UTC) | temp F | wind direction | speed MPH | gust MPH | rain 1hr in | rain 24hr in | rain mn in | humidity % | barometer mb |
| 20260903003058 | 89 | 0 | 0.0 | 0.0 | 0.00 | 0.00 | 0.00 | 66 | 1018.2 |
| 20260903001555 | 90 | 0 | 0.0 | 0.0 | 0.00 | 0.00 | 0.00 | 63 | 1018.2 |
| 20260903000101 | 93 | 0 | 0.0 | 2.0 | 0.00 | 0.00 | 0.00 | 60 | 1018.1 |
| 20260902234554 | 96 | 0 | 0.0 | 0.0 | 0.00 | 0.00 | 0.00 | 53 | 1018.1 |
| 20260902233100 | 97 | 0 | 0.0 | 0.0 | 0.00 | 0.00 | 0.00 | 52 | 1018.0 |
| 20260902231605 | 98 | 0 | 0.0 | 0.0 | 0.00 | 0.00 | 0.00 | 49 | 1018.1 |
| 20260902230059 | 97 | 0 | 0.0 | 0.0 | 0.00 | 0.00 | 0.00 | 48 | 1018.1 |
| 20260902224600 | 98 | 0 | 0.0 | 1.0 | 0.00 | 0.00 | 0.00 | 48 | 1018.2 |
| 20260902223101 | 99 | 0 | 0.0 | 3.0 | 0.00 | 0.00 | 0.00 | 47 | 1018.1 |
| 20260902221600 | 98 | 0 | 0.0 | 0.0 | 0.00 | 0.00 | 0.00 | 47 | 1018.3 |
| 20260902220053 | 98 | 0 | 0.0 | 2.0 | 0.00 | 0.00 | 0.00 | 50 | 1018.3 |
| 20260902214601 | 97 | 360 | 0.0 | 4.0 | 0.00 | 0.00 | 0.00 | 49 | 1018.2 |
| 20260902213059 | 97 | 0 | 1.0 | 3.0 | 0.00 | 0.00 | 0.00 | 49 | 1018.3 |
| 20260902211555 | 98 | 344 | 0.0 | 4.0 | 0.00 | 0.00 | 0.00 | 50 | 1018.3 |
| 20260902210056 | 96 | 0 | 0.0 | 4.0 | 0.00 | 0.00 | 0.00 | 54 | 1018.4 |
| 20260902204555 | 95 | 282 | 0.0 | 7.0 | 0.00 | 0.00 | 0.00 | 55 | 1018.5 |
| 20260902203057 | 94 | 298 | 0.0 | 4.0 | 0.00 | 0.00 | 0.00 | 56 | 1018.6 |
| 20260902201556 | 96 | 284 | 1.0 | 7.0 | 0.00 | 0.00 | 0.00 | 51 | 1018.9 |
| 20260902200110 | 96 | 0 | 1.0 | 5.0 | 0.00 | 0.00 | 0.00 | 50 | 1018.9 |
| 20260902194604 | 95 | 241 | 2.0 | 7.0 | 0.00 | 0.00 | 0.00 | 50 | 1019.2 |
| 20260902193057 | 96 | 98 | 0.0 | 4.0 | 0.00 | 0.00 | 0.00 | 51 | 1019.3 |
| 20260902191556 | 95 | 171 | 0.0 | 9.0 | 0.00 | 0.00 | 0.00 | 50 | 1019.5 |
| 20260902190050 | 95 | 273 | 2.0 | 8.0 | 0.00 | 0.00 | 0.00 | 51 | 1019.7 |
| 20260902184601 | 94 | 0 | 0.0 | 4.0 | 0.00 | 0.00 | 0.00 | 53 | 1019.9 |
| 20260902183059 | 95 | 83 | 0.0 | 7.0 | 0.00 | 0.00 | 0.00 | 54 | 1019.9 |
| 20260902181601 | 94 | 263 | 2.0 | 6.0 | 0.00 | 0.00 | 0.00 | 57 | 1020.0 |
| 20260902180122 | 94 | 270 | 2.0 | 6.0 | 0.00 | 0.00 | 0.00 | 53 | 1020.2 |
| 20260902174557 | 94 | 0 | 0.0 | 6.0 | 0.00 | 0.00 | 0.00 | 58 | 1020.3 |
| 20260902173057 | 93 | 0 | 0.0 | 3.0 | 0.00 | 0.00 | 0.00 | 60 | 1020.5 |
| 20260902171602 | 93 | 0 | 1.0 | 4.0 | 0.00 | 0.00 | 0.00 | 57 | 1020.7 |
| 20260902170057 | 92 | 305 | 1.0 | 5.0 | 0.00 | 0.00 | 0.00 | 58 | 1021.0 |
| 20260902164553 | 92 | 0 | 0.0 | 5.0 | 0.00 | 0.00 | 0.00 | 59 | 1021.3 |
| 20260902163104 | 91 | 275 | 1.0 | 6.0 | 0.00 | 0.00 | 0.00 | 64 | 1021.4 |
| 20260902161601 | 90 | 252 | 2.0 | 6.0 | 0.00 | 0.00 | 0.00 | 62 | 1021.5 |
| 20260902160058 | 89 | 0 | 0.0 | 4.0 | 0.00 | 0.00 | 0.00 | 65 | 1021.7 |
| 20260902154550 | 88 | 0 | 0.0 | 4.0 | 0.00 | 0.00 | 0.00 | 71 | 1021.6 |
| 20260902153058 | 88 | 0 | 1.0 | 3.0 | 0.00 | 0.00 | 0.00 | 69 | 1021.7 |
| 20260902151551 | 88 | 200 | 0.0 | 2.0 | 0.00 | 0.00 | 0.00 | 73 | 1021.8 |
| 20260902150058 | 87 | 0 | 1.0 | 4.0 | 0.00 | 0.00 | 0.00 | 76 | 1021.8 |
| 20260902144558 | 86 | 0 | 0.0 | 2.0 | 0.00 | 0.00 | 0.00 | 76 | 1021.6 |
| 20260902143056 | 84 | 0 | 0.0 | 0.0 | 0.00 | 0.00 | 0.00 | 79 | 1021.6 |
| 20260902141555 | 82 | 0 | 0.0 | 0.0 | 0.00 | 0.00 | 0.00 | 83 | 1021.5 |
| 20260902140056 | 80 | 0 | 0.0 | 0.0 | 0.00 | 0.00 | 0.00 | 84 | 1021.4 |
| 20260902134555 | 79 | 0 | 0.0 | 3.0 | 0.00 | 0.00 | 0.00 | 86 | 1021.4 |
| 20260902133056 | 78 | 142 | 0.0 | 0.0 | 0.00 | 0.00 | 0.00 | 89 | 1021.4 |
| 20260902131551 | 77 | 0 | 0.0 | 0.0 | 0.00 | 0.00 | 0.00 | 91 | 1021.5 |
| 20260902124556 | 74 | 0 | 0.0 | 2.0 | 0.00 | 0.00 | 0.00 | 94 | 1021.4 |
| 20260902123059 | 73 | 141 | 2.0 | 4.0 | 0.00 | 0.00 | 0.00 | 96 | 1021.4 |
| 20260902121558 | 72 | 0 | 0.0 | 0.0 | 0.00 | 0.00 | 0.00 | 97 | 1021.3 |
| 20260902120059 | 71 | 0 | 0.0 | 0.0 | 0.00 | 0.00 | 0.00 | 98 | 1021.2 |
| 20260902114555 | 71 | 0 | 0.0 | 0.0 | 0.00 | 0.00 | 0.00 | 97 | 1021.0 |
| 20260902113101 | 71 | 0 | 0.0 | 0.0 | 0.00 | 0.00 | 0.00 | 96 | 1020.8 |
| 20260902111554 | 71 | 0 | 0.0 | 0.0 | 0.00 | 0.00 | 0.00 | 96 | 1020.6 |
| 20260902110058 | 72 | 0 | 0.0 | 0.0 | 0.00 | 0.00 | 0.00 | 96 | 1020.4 |
| 20260902104557 | 72 | 0 | 0.0 | 0.0 | 0.00 | 0.00 | 0.00 | 96 | 1020.3 |
| 20260902103051 | 72 | 0 | 0.0 | 0.0 | 0.00 | 0.00 | 0.00 | 96 | 1020.1 |
| 20260902101555 | 72 | 0 | 0.0 | 0.0 | 0.00 | 0.00 | 0.00 | 95 | 1020.1 |
| 20260902100109 | 72 | 0 | 0.0 | 0.0 | 0.00 | 0.00 | 0.00 | 95 | 1020.0 |
| 20260902094558 | 73 | 0 | 0.0 | 0.0 | 0.00 | 0.00 | 0.00 | 96 | 1019.9 |
| 20260902093057 | 73 | 0 | 0.0 | 0.0 | 0.00 | 0.00 | 0.00 | 96 | 1019.9 |
| 20260902091556 | 73 | 0 | 0.0 | 0.0 | 0.00 | 0.00 | 0.00 | 96 | 1019.7 |
| 20260902090055 | 73 | 0 | 0.0 | 0.0 | 0.00 | 0.00 | 0.00 | 96 | 1019.6 |
| 20260902084603 | 73 | 0 | 0.0 | 0.0 | 0.00 | 0.00 | 0.00 | 96 | 1019.6 |
| 20260902083100 | 73 | 0 | 0.0 | 0.0 | 0.00 | 0.00 | 0.00 | 94 | 1019.5 |
| 20260902081604 | 73 | 0 | 0.0 | 0.0 | 0.00 | 0.00 | 0.00 | 94 | 1019.3 |
| 20260902080100 | 73 | 0 | 0.0 | 0.0 | 0.00 | 0.00 | 0.00 | 93 | 1019.4 |
| 20260902074554 | 74 | 0 | 0.0 | 0.0 | 0.00 | 0.00 | 0.00 | 93 | 1019.4 |
| 20260902073059 | 74 | 0 | 0.0 | 0.0 | 0.00 | 0.00 | 0.00 | 92 | 1019.3 |
| 20260902071551 | 75 | 0 | 0.0 | 0.0 | 0.00 | 0.00 | 0.00 | 92 | 1019.4 |
| 20260902070106 | 75 | 0 | 0.0 | 0.0 | 0.00 | 0.00 | 0.00 | 92 | 1019.5 |
| 20260902064601 | 75 | 0 | 0.0 | 0.0 | 0.00 | 0.00 | 0.00 | 92 | 1019.4 |
| 20260902063054 | 75 | 0 | 0.0 | 0.0 | 0.00 | 0.00 | 0.00 | 91 | 1019.5 |
| 20260902061603 | 75 | 0 | 0.0 | 0.0 | 0.00 | 0.00 | 0.00 | 91 | 1019.5 |
| 20260902060107 | 76 | 0 | 0.0 | 0.0 | 0.00 | 0.00 | 0.00 | 91 | 1019.5 |
| 20260902054557 | 76 | 0 | 0.0 | 0.0 | 0.00 | 0.00 | 0.00 | 91 | 1019.6 |
| 20260902053106 | 76 | 0 | 0.0 | 0.0 | 0.00 | 0.00 | 0.00 | 91 | 1019.6 |
| 20260902051551 | 76 | 0 | 0.0 | 0.0 | 0.00 | 0.00 | 0.00 | 89 | 1019.7 |
| 20260902050104 | 77 | 0 | 0.0 | 0.0 | 0.00 | 0.00 | 0.00 | 87 | 1019.7 |
| 20260902044559 | 78 | 0 | 0.0 | 0.0 | 0.00 | 0.00 | 0.00 | 87 | 1019.6 |
| 20260902043104 | 78 | 0 | 0.0 | 0.0 | 0.00 | 0.00 | 0.00 | 86 | 1019.5 |
| 20260902041555 | 78 | 0 | 0.0 | 0.0 | 0.00 | 0.00 | 0.00 | 85 | 1019.8 |
| 20260902040103 | 79 | 0 | 0.0 | 0.0 | 0.00 | 0.00 | 0.00 | 85 | 1019.7 |
| 20260902034559 | 79 | 0 | 0.0 | 0.0 | 0.00 | 0.00 | 0.00 | 84 | 1019.8 |
| 20260902033102 | 79 | 0 | 0.0 | 0.0 | 0.00 | 0.00 | 0.00 | 84 | 1019.9 |
| 20260902031556 | 80 | 0 | 0.0 | 0.0 | 0.00 | 0.00 | 0.00 | 82 | 1019.8 |
| 20260902030100 | 81 | 0 | 0.0 | 0.0 | 0.00 | 0.00 | 0.00 | 80 | 1019.9 |
| 20260902024556 | 81 | 0 | 0.0 | 0.0 | 0.00 | 0.00 | 0.00 | 79 | 1019.8 |
| 20260902023055 | 81 | 0 | 0.0 | 0.0 | 0.00 | 0.00 | 0.00 | 79 | 1019.7 |
| 20260902021556 | 81 | 0 | 0.0 | 0.0 | 0.00 | 0.00 | 0.00 | 80 | 1019.6 |
| 20260902020055 | 82 | 0 | 0.0 | 1.0 | 0.00 | 0.00 | 0.00 | 79 | 1019.5 |
| 20260902014557 | 82 | 138 | 1.0 | 4.0 | 0.00 | 0.00 | 0.00 | 77 | 1019.5 |
| 20260902013055 | 83 | 0 | 0.0 | 0.0 | 0.00 | 0.00 | 0.00 | 76 | 1019.2 |
| 20260902011557 | 84 | 0 | 0.0 | 0.0 | 0.00 | 0.00 | 0.00 | 74 | 1019.1 |
| 20260902010105 | 85 | 0 | 0.0 | 0.0 | 0.00 | 0.00 | 0.00 | 72 | 1019.0 |
| 20260902004550 | 87 | 0 | 0.0 | 2.0 | 0.00 | 0.00 | 0.00 | 70 | 1018.9 |